Dewpoint
36 36 37 39 41 42 43 43 42 41 40 40 41 41 41 41 41 41 41 42 43 43 45 45 46 47 49 49 49 50 50 49 49 40 43 46 53 53 53 54 53 52 51
35 36 36 38 40 41 42 42 42 41 40 40 39 39 39 39 39 40 38 39 39 39 40 41 41 44 45 48 49 49 49 48 44 39 40 41 51 53 52 53 52 53 52
35 35 35 36 38 40 40 41 41 41 41 40 38 38 38 38 38 37 36 36 36 36 37 37 38 40 43 44 45 48 49 48 44 41 38 42 43 52 51 52 52 52 52
35 34 34 34 37 38 38 39 40 40 39 38 38 37 37 35 37 37 36 35 35 35 36 36 37 39 40 43 44 45 48 46 44 42 40 40 43 46 50 49 48 49 49
34 34 33 34 36 36 36 37 38 38 36 37 34 35 36 35 34 37 37 36 35 34 35 34 37 38 40 39 42 42 45 45 43 41 39 39 38 42 44 46 46 46 47
35 34 35 35 34 34 34 36 36 35 34 35 34 33 32 31 35 37 37 35 33 34 33 34 35 37 37 37 38 38 40 43 41 39 38 39 40 40 41 44 43 42 39
34 35 34 33 33 33 34 33 33 33 34 34 33 32 32 32 35 37 36 34 33 34 34 34 34 35 36 36 36 37 38 40 36 43 41 41 41 43 43 42 42 42 41
32 33 32 32 32 33 33 33 33 33 33 33 32 32 32 30 35 36 36 35 32 32 33 34 33 33 33 34 34 34 37 39 42 42 43 43 44 44 43 43 42 42 41
31 31 31 31 32 32 30 31 34 33 33 33 33 33 31 32 35 35 36 36 35 34 33 33 31 32 33 34 33 32 34 35 39 40 39 41 41 41 43 42 39 36 35
31 31 31 31 31 31 30 30 32 33 33 34 33 34 33 32 34 35 35 34 33 33 34 33 32 30 32 32 32 31 31 33 35 37 38 39 39 41 39 41 38 35 34
31 32 31 31 31 31 30 30 31 31 32 32 30 31 31 32 33 34 34 33 33 32 31 31 31 32 31 31 32 31 31 32 33 34 35 35 38 39 40 42 39 37 35
30 30 30 30 31 32 30 29 28 31 30 29 30 30 31 31 32 33 34 33 32 31 30 29 31 30 31 30 30 30 32 32 33 33 33 34 35 36 38 39 39 39 38
28 27 27 28 30 30 28 27 26 30 30 28 28 28 30 31 32 33 33 33 31 30 31 31 32 30 30 30 32 32 31 32 32 32 33 34 35 36 36 35 36 35 35
26 25 26 28 31 30 29 28 25 23 24 28 27 29 30 29 30 30 32 32 31 30 30 30 29 29 30 31 32 32 32 32 32 32 34 34 34 34 35 36 35 34 32
26 25 26 27 28 29 29 28 29 28 28 30 29 29 30 29 29 33 33 33 32 31 30 30 29 29 29 30 30 32 32 33 32 33 34 34 34 34 35 36 36 33 33
29 26 27 27 27 27 26 29 30 30 30 31 31 30 31 31 32 33 34 34 33 32 29 28 28 29 29 29 29 30 32 32 33 33 34 34 34 34 34 34 35 33 33
31 31 30 29 28 26 26 27 26 29 30 31 31 31 30 30 31 32 33 33 33 32 28 28 29 28 28 28 30 30 30 32 32 34 34 34 34 34 33 32 32 32 32
32 31 31 31 31 30 27 26 27 28 29 28 29 29 29 30 30 31 31 32 30 30 29 28 28 28 28 28 29 30 31 32 31 32 33 34 34 33 32 32 32 32 30
30 31 31 30 30 30 30 28 27 28 28 27 27 27 27 29 30 29 29 28 29 30 31 31 30 28 28 29 30 30 31 32 32 32 32 32 32 33 32 32 32 32 29
26 27 27 28 28 28 28 28 27 26 25 25 25 25 25 26 24 23 25 28 27 28 30 31 31 30 30 29 29 30 30 31 31 32 32 32 32 32 32 32 32 30 29
24 24 25 25 26 28 28 27 28 26 23 23 23 23 23 22 22 24 26 26 26 27 28 32 32 31 30 29 28 29 30 31 31 31 31 32 32 31 32 32 32 30 29
18 18 18 20 23 24 23 23 22 22 22 21 21 22 20 19 22 22 23 23 24 27 28 30 32 32 31 29 28 29 29 30 31 30 30 31 31 32 31 31 30 29 29
15 15 15 16 17 18 18 19 18 19 18 17 18 20 20 20 19 21 21 19 22 24 26 28 31 32 32 30 30 29 30 30 31 32 31 31 31 31 31 30 28 28 28
15 15 15 15 16 16 15 13 15 14 15 16 14 15 17 20 16 16 18 19 19 19 23 27 27 28 31 30 30 30 31 31 32 32 32 31 31 30 30 29 28 28 28
15 15 15 15 16 14 12 13 14 13 14 14 13 16 17 17 18 15 16 16 17 17 22 21 23 26 28 31 30 29 30 31 31 32 32 32 31 30 30 29 29 28 28
14 15 15 16 16 16 14 13 12 12 13 14 15 16 16 17 18 14 15 15 15 15 17 19 22 23 26 29 30 27 28 30 31 31 32 32 31 30 30 29 28 28 28
Lifted_Index
16 16 16 15 13 12 11 10 9 8 7 6 5 5 5 6 6 5 4 4 3 3 3 3 4 3 3 3 4 6 6 5 4 2 2 2 2 2 2 3 3 5 6
15 15 15 14 12 11 10 9 8 7 6 5 5 5 5 5 5 5 4 4 4 4 4 4 4 4 3 3 4 5 5 5 5 4 3 3 3 3 2 3 3 4 5
14 14 13 12 11 10 8 7 7 6 6 5 5 5 5 5 5 5 5 4 4 4 4 5 5 4 4 4 4 5 5 5 5 5 5 4 4 3 3 3 3 4 5
12 12 11 11 9 8 7 6 6 6 6 6 6 6 6 6 6 5 5 5 5 5 5 5 5 5 5 4 5 5 5 4 4 5 5 5 4 4 4 3 3 4 5
11 11 10 10 8 7 6 5 5 6 6 7 7 7 7 7 6 6 6 5 5 5 5 6 6 6 6 5 5 5 5 4 4 4 5 5 5 5 5 4 4 4 5
11 10 10 9 8 7 6 6 6 6 7 8 8 8 8 8 7 7 7 6 6 6 6 6 6 6 6 6 6 6 5 5 4 4 5 5 5 5 5 5 5 5 5
10 9 9 9 8 7 7 6 7 7 8 8 9 9 9 8 8 8 7 7 7 7 7 7 6 6 6 6 6 6 6 5 5 5 5 5 5 6 6 6 6 6 6
8 8 8 8 8 8 8 7 8 8 9 9 9 9 8 8 8 8 8 8 7 7 8 8 7 7 7 6 6 7 7 6 5 5 5 5 5 5 6 7 7 7 7
7 7 7 8 8 8 8 8 8 9 9 9 9 9 8 8 8 8 8 8 7 7 7 8 8 8 8 7 6 6 7 7 6 5 5 4 5 5 5 6 7 7 7
5 5 6 7 7 8 8 8 8 9 9 9 9 8 8 8 8 8 8 7 7 6 7 7 8 8 8 8 7 7 6 7 7 6 5 5 4 5 5 6 7 7 7
5 5 5 6 6 7 8 8 8 8 8 8 8 8 8 8 7 7 7 7 6 6 6 7 7 7 8 8 8 8 7 7 6 6 5 5 5 5 5 6 6 6 7
5 5 5 5 5 6 7 7 8 8 8 8 7 7 7 7 7 7 7 7 7 6 6 7 7 7 7 7 8 8 8 7 7 6 5 5 5 5 5 6 6 6 7
4 4 4 4 4 5 6 7 7 8 8 7 7 7 7 7 7 7 7 7 7 7 7 7 7 7 7 7 7 7 8 8 7 7 6 5 5 5 5 5 6 7 7
2 3 3 3 3 4 5 6 7 7 8 7 7 7 7 7 7 7 7 7 7 7 7 7 7 7 7 7 7 7 7 8 8 7 7 7 6 5 5 5 6 6 7
1 2 2 2 2 3 4 5 6 7 7 7 7 7 7 7 7 8 8 7 7 7 6 6 7 7 7 7 6 7 7 7 8 8 8 8 7 7 6 6 5 5 5
2 2 2 2 2 3 3 4 5 6 7 7 7 8 8 8 8 8 8 8 7 7 6 6 6 6 7 7 7 7 7 7 7 7 8 8 8 7 7 6 6 5 5
3 3 3 3 3 3 3 4 4 5 6 6 7 7 8 8 9 9 8 8 7 7 6 6 6 7 7 7 7 7 7 8 7 7 7 8 8 7 7 6 6 5 5
3 4 4 4 4 4 4 4 4 4 5 5 6 7 8 9 9 9 9 8 8 7 7 7 7 7 7 7 7 7 8 8 8 8 8 8 8 8 7 6 6 6 6
5 5 5 5 4 4 4 5 5 5 5 6 6 7 8 8 9 9 9 9 8 8 8 7 7 7 7 8 8 8 8 8 8 9 9 9 9 8 7 6 6 6 6
7 7 6 6 6 5 5 5 5 5 6 6 6 7 7 8 8 9 9 9 9 9 9 8 8 7 8 8 8 8 8 9 9 9 10 10 9 8 8 7 7 7 6
9 8 8 7 7 6 6 6 6 6 6 6 7 7 8 8 8 9 9 10 10 10 10 9 8 8 8 8 8 8 9 9 9 9 10 10 9 9 9 8 8 8 8
9 9 9 8 8 7 7 7 7 6 6 7 7 8 8 8 9 9 9 10 10 11 10 10 9 8 8 8 8 9 9 9 9 10 10 10 10 10 10 9 9 9 10
10 10 9 9 9 8 8 8 7 7 7 7 8 8 9 9 9 9 10 10 10 11 11 10 9 8 8 8 8 9 9 9 10 11 11 11 11 11 11 10 10 10 10
11 11 10 10 9 9 9 8 8 8 8 8 9 9 9 9 9 9 10 10 10 11 11 10 10 9 8 8 8 9 9 10 11 11 12 12 12 12 11 11 11 11 11
12 11 11 10 10 10 9 9 9 9 9 9 9 10 10 10 10 10 10 10 10 10 11 11 10 9 8 8 8 9 9 10 11 12 12 12 12 12 12 12 12 11 12
12 11 11 11 10 10 9 9 9 9 9 9 10 10 10 10 10 10 10 10 10 10 11 11 10 9 8 8 8 8 9 10 11 12 13 13 13 13 12 12 12 12 12